Birmingham, United Kingdom

9:56 PM BST on September 19, 2017 (GMT +0100)
Birmingham

Weather History for EGBB - November, 2013

Change the Weather History Date:

Wednesday, November 13, 2013

  Actual Average Record
Temperature  
Mean Temperature 40 °F -  
Max Temperature 50 °F 47 °F 59 °F (2011)
Min Temperature 30 °F 36 °F 28 °F (1996)
Degree Days  
Heating Degree Days 25    
Moisture  
Dew Point 38 °F    
Average Humidity 88    
Maximum Humidity 100    
Minimum Humidity 71    
Precipitation  
Precipitation 0.00 in 0.08 in - ()
Sea Level Pressure  
Sea Level Pressure 30.40 in    
Wind  
Wind Speed 6 mph ()    
Max Wind Speed 14 mph    
Max Gust Speed 28 mph    
Visibility 6.1 miles    
Events Rain    
Averages and records for this station are not official NWS values.
T = Trace of Precipitation, MM = Missing Value Source: Averaged Metar Reports

Daily Weather History Graph

Daily Weather History Graph

Search for Another Location

Airport or City:

Trip Planner

Search our weather history database for the weather conditions in past years. The results will help you decide how hot, cold, wet, or windy it might be!

Date:

Astronomy

Nov. 13, 2013 Rise Set
Actual Time 7:25 AM GMT 4:16 PM GMT
Civil Twilight 6:47 AM GMT 4:54 PM GMT
Nautical Twilight 6:05 AM GMT 5:35 PM GMT
Astronomical Twilight 5:25 AM GMT 6:15 PM GMT
Moon 2:23 PM GMT (11/13) 2:31 AM GMT (11/13)
Length of Visible Light 10h 07m
Length of Day
8h 51m
Waxing Gibbous, 83% of the Moon is Illuminated
Nov 13
Waxing Gibbous
Nov 17
Full
Nov 25
Last Quarter
Dec 3
New
Dec 9
First Quarter

Hourly Weather History & Observations

Time (GMT) Temp. Windchill Dew Point Humidity Pressure Visibility Wind Dir Wind Speed Gust Speed Precip Events Conditions
12:20 AM 37.4 °F 33.8 °F 33.8 °F 87% 30.51 in 6.2 mi SE 4.6 mph - N/A   Unknown
12:50 AM 35.6 °F 32.8 °F 33.8 °F 93% 30.51 in 6.2 mi South 3.5 mph - N/A   Unknown
1:20 AM 35.6 °F - 33.8 °F 93% 30.51 in 6.2 mi Variable 2.3 mph - N/A   Unknown
1:50 AM 35.6 °F 31.7 °F 33.8 °F 93% 30.51 in 6.2 mi SSE 4.6 mph - N/A   Unknown
2:20 AM 33.8 °F 29.6 °F 33.8 °F 100% 30.51 in 6.2 mi SE 4.6 mph - N/A   Unknown
2:50 AM 32.0 °F 27.5 °F 32.0 °F 100% 30.51 in 6.2 mi SE 4.6 mph - N/A   Unknown
3:20 AM 33.8 °F - 33.8 °F 100% 30.51 in 6.2 mi SE 2.3 mph - N/A   Unknown
3:50 AM 32.0 °F - 30.2 °F 93% 30.51 in - Calm Calm - N/A   Mist
4:20 AM 30.2 °F 24.3 °F 30.2 °F 100% 30.51 in - SSE 5.8 mph - N/A   Clear
4:50 AM 32.0 °F 28.7 °F 32.0 °F 100% 30.51 in - SE 3.5 mph - N/A   Clear
5:20 AM 30.2 °F 25.4 °F 30.2 °F 100% 30.51 in - SSE 4.6 mph - N/A   Clear
5:50 AM 32.0 °F 28.7 °F 32.0 °F 100% 30.51 in - Variable 3.5 mph - N/A   Clear
6:20 AM 32.0 °F 28.7 °F 32.0 °F 100% 30.51 in - Variable 3.5 mph - N/A   Clear
6:50 AM 33.8 °F 30.8 °F 33.8 °F 100% 30.51 in - SSE 3.5 mph - N/A   Clear
7:20 AM 33.8 °F - 33.8 °F 100% 30.51 in - Variable 2.3 mph - N/A   Clear
7:50 AM 33.8 °F 29.6 °F 33.8 °F 100% 30.51 in - SSE 4.6 mph - N/A   Clear
8:20 AM 37.4 °F 34.9 °F 35.6 °F 93% 30.51 in - West 3.5 mph - N/A   Clear
8:50 AM 39.2 °F - 37.4 °F 93% 30.54 in - Calm Calm - N/A   Clear
9:20 AM 39.2 °F 37.0 °F 37.4 °F 93% 30.54 in - Variable 3.5 mph - N/A   Clear
9:50 AM 42.8 °F 40.1 °F 39.2 °F 87% 30.54 in - SSW 4.6 mph - N/A   Clear
10:20 AM 44.6 °F 40.2 °F 39.2 °F 81% 30.54 in - SSW 8.1 mph - N/A   Clear
10:50 AM 44.6 °F 40.2 °F 41.0 °F 87% 30.51 in - SW 8.1 mph - N/A   Clear
11:20 AM 48.2 °F - 41.0 °F 76% 30.51 in - SSW 9.2 mph - N/A   Clear
11:50 AM 46.4 °F 41.9 °F 41.0 °F 81% 30.48 in - SW 9.2 mph - N/A   Clear
12:20 PM 48.2 °F - 41.0 °F 76% 30.45 in - SSW 10.4 mph - N/A   Clear
12:50 PM 48.2 °F - 41.0 °F 76% 30.45 in - WSW 10.4 mph - N/A   Clear
1:20 PM 50.0 °F - 41.0 °F 71% 30.45 in 6.2 mi SW 9.2 mph - N/A   Partly Cloudy
1:50 PM 48.2 °F - 41.0 °F 76% 30.42 in - SW 11.5 mph 27.6 mph N/A   Clear
2:20 PM 48.2 °F - 41.0 °F 76% 30.42 in 6.2 mi SW 9.2 mph - N/A   Partly Cloudy
2:50 PM 48.2 °F - 41.0 °F 76% 30.39 in 6.2 mi SSW 8.1 mph - N/A   Partly Cloudy
3:20 PM 46.4 °F 42.4 °F 42.8 °F 87% 30.36 in 6.2 mi SSW 8.1 mph - N/A   Scattered Clouds
3:50 PM 46.4 °F 41.9 °F 42.8 °F 87% 30.36 in 6.2 mi SSW 9.2 mph - N/A   Mostly Cloudy
4:20 PM 46.4 °F 42.4 °F 42.8 °F 87% 30.36 in 6.2 mi South 8.1 mph - N/A   Overcast
4:50 PM 46.4 °F 41.5 °F 41.0 °F 81% 30.33 in 6.2 mi SSW 10.4 mph - N/A   Overcast
5:20 PM 46.4 °F 41.5 °F 41.0 °F 81% 30.33 in 6.2 mi South 10.4 mph - N/A   Overcast
5:50 PM 46.4 °F 42.4 °F 41.0 °F 81% 30.30 in 6.2 mi South 8.1 mph - N/A   Mostly Cloudy
6:20 PM 46.4 °F 41.9 °F 41.0 °F 81% 30.27 in 6.2 mi South 9.2 mph - N/A   Mostly Cloudy
6:50 PM 46.4 °F 41.5 °F 41.0 °F 81% 30.27 in 6.2 mi SSW 10.4 mph - N/A   Mostly Cloudy
7:20 PM 46.4 °F 41.1 °F 41.0 °F 81% 30.24 in 6.2 mi SSW 11.5 mph - N/A   Scattered Clouds
7:50 PM 46.4 °F 40.7 °F 41.0 °F 81% 30.21 in - SSW 12.7 mph - N/A   Clear
8:20 PM 46.4 °F 40.7 °F 41.0 °F 81% 30.21 in 6.2 mi SSW 12.7 mph - N/A Rain Light Rain
8:50 PM 46.4 °F 41.1 °F 42.8 °F 87% 30.18 in 6.2 mi SSW 11.5 mph - N/A Rain Light Rain
9:20 PM 46.4 °F 42.9 °F 42.8 °F 87% 30.18 in 6.2 mi SSW 6.9 mph - N/A   Partly Cloudy
9:50 PM 46.4 °F 41.5 °F 42.8 °F 87% 30.18 in 6.2 mi SSW 10.4 mph - N/A   Partly Cloudy
10:20 PM 44.6 °F 38.8 °F 42.8 °F 93% 30.15 in 5.6 mi SSW 11.5 mph - N/A   Mostly Cloudy
10:50 PM 46.4 °F 41.1 °F 42.8 °F 87% 30.15 in 5.6 mi SSW 11.5 mph - N/A   Scattered Clouds
11:20 PM 46.4 °F 40.4 °F 44.6 °F 93% 30.12 in 6.2 mi SSW 13.8 mph - N/A   Scattered Clouds
11:50 PM 46.4 °F 41.1 °F 44.6 °F 93% 30.12 in 4.3 mi SSW 11.5 mph - N/A Rain Rain